Weather History for Marietta, GA

Change the Weather History Date:

Friday, December 6, 2013

  Actual Average Record
Temperature  
Mean Temperature 63 °F -  
Max Temperature 73 °F 54 °F 75 °F (1998)
Min Temperature 53 °F 37 °F 26 °F (1997)
Degree Days  
Heating Degree Days 2    
Growing Degree Days 13 (Base 50)    
Moisture  
Dew Point 65 °F    
Average Humidity 94    
Maximum Humidity 100    
Minimum Humidity 78    
Precipitation  
Precipitation 0.28 in - - ()
Sea Level Pressure  
Sea Level Pressure 30.03 in    
Wind  
Wind Speed 8 mph (SSW)    
Max Wind Speed 26 mph    
Max Gust Speed 43 mph    
Visibility 10 miles    
Events Rain , Thunderstorm    
Averages and records for this station are not official NWS values.
T = Trace of Precipitation, MM = Missing Value Source: NWS Daily Summary

Daily Weather History Graph

Daily Weather History Graph

Search for Another Location

Airport:

Trip Planner

Search our weather history database for the weather conditions in past years. The results will help you decide how hot, cold, wet, or windy it might be!

Date:

Astronomy

Dec. 06, 2013 Rise Set
Actual Time 7:29 AM EST 5:28 PM EST
Civil Twilight 7:01 AM EST 5:56 PM EST
Nautical Twilight 6:30 AM EST 6:27 PM EST
Astronomical Twilight 6:00 AM EST 6:57 PM EST
Moon 10:40 AM EST (12/6) 9:52 PM EST (12/6)
Length of Visible Light 10h 54m
Length of Day
9h 59m
Waxing Crescent, 19% of the Moon is Illuminated
Dec 6
Waxing Crescent
Dec 9
First Quarter
Dec 17
Full
Dec 25
Last Quarter
Jan 1
New

Hourly Weather History & Observations

Time (EST) Temp. Dew Point Humidity Pressure Visibility Wind Dir Wind Speed Gust Speed Precip Events Conditions
12:03 AM 68.0 °F 68.0 °F 100% 30.03 in 10.0 mi South 6.9 mph - N/A   Overcast
12:08 AM 68.0 °F 68.0 °F 100% 30.04 in 10.0 mi Variable 6.9 mph - N/A   Overcast
12:13 AM 68.0 °F 68.0 °F 100% 30.04 in 10.0 mi South 5.8 mph - N/A   Overcast
12:18 AM 68.0 °F 68.0 °F 100% 30.04 in 10.0 mi SSW 5.8 mph - N/A   Overcast
12:23 AM 68.0 °F 68.0 °F 100% 30.04 in 10.0 mi South 8.1 mph - N/A   Overcast
12:58 AM 68.2 °F 67.6 °F 98% 30.02 in 10.0 mi SSW 5.8 mph - N/A   Overcast
12:59 AM 68.0 °F 68.0 °F 100% 30.04 in 10.0 mi South 8.1 mph - N/A Rain Light Rain
1:08 AM 68.0 °F 68.0 °F 100% 30.04 in 10.0 mi South 6.9 mph - N/A   Overcast
1:23 AM 68.0 °F 68.0 °F 100% 30.03 in 10.0 mi SSW 9.2 mph - N/A   Overcast
1:30 AM 68.0 °F 68.0 °F 100% 30.03 in 10.0 mi South 6.9 mph - N/A Rain , Thunderstorm Light Rain
1:35 AM 68.0 °F 68.0 °F 100% 30.04 in 5.0 mi SSW 9.2 mph - N/A Rain , Thunderstorm Light Rain
1:45 AM 68.0 °F 68.0 °F 100% 30.03 in 8.0 mi South 8.1 mph - N/A Rain Light Rain
1:48 AM 68.0 °F 68.0 °F 100% 30.03 in 10.0 mi South 8.1 mph - N/A   Overcast
1:58 AM 68.0 °F 67.5 °F 98% 30.01 in 10.0 mi South 6.9 mph - 0.05 in   Overcast
2:08 AM 68.0 °F 68.0 °F 100% 30.02 in 10.0 mi SSW 8.1 mph - N/A   Overcast
2:13 AM 68.0 °F 68.0 °F 100% 30.02 in 10.0 mi SSW 4.6 mph - N/A   Overcast
2:23 AM 68.0 °F 68.0 °F 100% 30.02 in 10.0 mi Variable 5.8 mph - N/A   Mostly Cloudy
2:41 AM 68.0 °F 68.0 °F 100% 30.02 in 10.0 mi South 5.8 mph - N/A   Light Drizzle
2:50 AM 68.0 °F 68.0 °F 100% 30.01 in 10.0 mi South 3.5 mph - N/A   Overcast
2:58 AM 67.6 °F 67.1 °F 98% 29.99 in 10.0 mi South 5.8 mph - 0.00 in   Overcast
2:59 AM 68.0 °F 68.0 °F 100% 30.01 in 10.0 mi South 5.8 mph - N/A Rain Light Rain
3:04 AM 68.0 °F 68.0 °F 100% 30.01 in 10.0 mi South 5.8 mph - N/A Rain Light Rain
3:06 AM 68.0 °F 68.0 °F 100% 30.01 in 10.0 mi SSE 5.8 mph - N/A   Overcast
3:08 AM 68.0 °F 68.0 °F 100% 30.01 in 10.0 mi South 5.8 mph - N/A   Light Drizzle
3:13 AM 68.0 °F 68.0 °F 100% 30.02 in 10.0 mi South 4.6 mph - N/A Rain Light Rain
3:18 AM 68.0 °F 68.0 °F 100% 30.02 in 9.0 mi Variable 4.6 mph - N/A Rain Light Rain
3:23 AM 68.0 °F 68.0 °F 100% 30.02 in 8.0 mi South 4.6 mph - N/A Rain Light Rain
3:33 AM 68.0 °F 68.0 °F 100% 30.02 in 10.0 mi South 5.8 mph - N/A Rain Light Rain
3:36 AM 68.0 °F 68.0 °F 100% 30.02 in 10.0 mi South 4.6 mph - N/A   Overcast
3:46 AM 68.0 °F 68.0 °F 100% 30.01 in 10.0 mi South 5.8 mph - N/A   Overcast
3:58 AM 67.5 °F 67.3 °F 99% 29.99 in 10.0 mi South 5.8 mph - 0.01 in   Overcast
4:03 AM 68.0 °F 68.0 °F 100% 30.01 in 10.0 mi South 6.9 mph - N/A   Overcast
4:13 AM 68.0 °F 66.2 °F 94% 30.00 in 10.0 mi South 8.1 mph - N/A   Overcast
4:38 AM 68.0 °F 66.2 °F 94% 30.00 in 10.0 mi South 11.5 mph 17.3 mph N/A   Overcast
4:58 AM 68.2 °F 66.7 °F 95% 29.99 in 10.0 mi SSW 8.1 mph - N/A   Overcast
5:38 AM 68.0 °F 66.2 °F 94% 30.02 in 10.0 mi SSW 6.9 mph - N/A   Overcast
5:58 AM 68.2 °F 66.7 °F 95% 30.01 in 10.0 mi Variable 5.8 mph - N/A   Overcast
6:28 AM 68.0 °F 66.2 °F 94% 30.03 in 10.0 mi South 9.2 mph - N/A   Overcast
6:58 AM 68.0 °F 66.6 °F 95% 30.01 in 10.0 mi South 8.1 mph - N/A   Overcast
7:26 AM 68.0 °F 66.2 °F 94% 30.03 in 10.0 mi South 10.4 mph - N/A   Overcast
7:58 AM 68.0 °F 66.4 °F 95% 30.03 in 10.0 mi South 10.4 mph - N/A   Overcast
8:58 AM 68.5 °F 66.6 °F 93% 30.04 in 10.0 mi South 9.2 mph - N/A   Overcast
9:42 AM 69.8 °F 66.2 °F 88% 30.07 in 10.0 mi South 12.7 mph - N/A   Overcast
9:58 AM 70.3 °F 67.3 °F 90% 30.05 in 10.0 mi South 6.9 mph - N/A   Overcast
10:28 AM 69.8 °F 68.0 °F 94% 30.07 in 10.0 mi South 10.4 mph - N/A   Overcast
10:36 AM 71.6 °F 68.0 °F 88% 30.07 in 10.0 mi South 10.4 mph - N/A   Overcast
10:58 AM 72.0 °F 67.3 °F 85% 30.05 in 10.0 mi SSW 9.2 mph 19.6 mph N/A   Overcast
11:58 AM 72.1 °F 66.6 °F 83% 30.02 in 10.0 mi South 8.1 mph - N/A   Overcast
12:30 PM 71.6 °F 66.2 °F 83% 30.03 in 10.0 mi South 9.2 mph 18.4 mph N/A   Overcast
12:58 PM 73.9 °F 66.7 °F 78% 30.01 in 10.0 mi SSW 10.4 mph 19.6 mph N/A   Overcast
1:58 PM 73.4 °F 66.2 °F 78% 29.98 in 10.0 mi South 13.8 mph 21.9 mph N/A   Overcast
2:39 PM 73.4 °F 66.2 °F 78% 30.00 in 10.0 mi South 13.8 mph 20.7 mph N/A Rain Light Rain
2:45 PM 73.4 °F 66.2 °F 78% 30.00 in 10.0 mi South 12.7 mph 20.7 mph N/A   Overcast
2:58 PM 73.8 °F 66.4 °F 78% 29.98 in 10.0 mi South 10.4 mph 20.7 mph 0.00 in   Overcast
3:39 PM 73.4 °F 66.2 °F 78% 30.00 in 10.0 mi South 13.8 mph 19.6 mph N/A Rain Light Rain
3:55 PM 71.6 °F 68.0 °F 88% 30.01 in 10.0 mi SSW 4.6 mph - N/A   Overcast
3:58 PM 70.9 °F 67.8 °F 90% 29.99 in 10.0 mi South 4.6 mph - 0.00 in   Overcast
4:56 PM 71.6 °F 68.0 °F 88% 30.01 in 10.0 mi SSE 6.9 mph - N/A   Overcast
4:58 PM 70.9 °F 67.5 °F 89% 29.99 in 10.0 mi South 6.9 mph - N/A   Overcast
5:58 PM 70.7 °F 66.7 °F 87% 29.99 in 10.0 mi SSE 8.1 mph - N/A   Overcast
6:54 PM 69.8 °F 66.2 °F 88% 30.01 in 10.0 mi South 8.1 mph - N/A   Overcast
6:58 PM 70.7 °F 66.4 °F 86% 29.99 in 10.0 mi South 9.2 mph - N/A   Overcast
7:02 PM 71.6 °F 66.2 °F 83% 30.01 in 10.0 mi South 5.8 mph - N/A Rain Light Rain
7:11 PM 71.6 °F 66.2 °F 83% 30.00 in 10.0 mi South 11.5 mph - N/A   Overcast
7:16 PM 71.6 °F 66.2 °F 83% 30.00 in 10.0 mi South 10.4 mph - N/A Rain Light Rain
7:25 PM 69.8 °F 66.2 °F 88% 30.00 in 10.0 mi South 10.4 mph - N/A   Overcast
7:58 PM 70.0 °F 66.9 °F 90% 29.99 in 10.0 mi South 8.1 mph - 0.00 in   Overcast
8:58 PM 70.7 °F 67.1 °F 88% 29.98 in 10.0 mi SSW 10.4 mph 20.7 mph N/A   Overcast
9:09 PM 69.8 °F 66.2 °F 88% 30.04 in 10.0 mi NNW 26.5 mph 42.6 mph N/A   Squalls
9:10 PM 68.0 °F 62.6 °F 83% 30.05 in 3.0 mi NW 23.0 mph 42.6 mph N/A Rain Rain
9:16 PM 62.6 °F 59.0 °F 88% 30.06 in 5.0 mi NNW 13.8 mph 42.6 mph N/A Rain , Thunderstorm Thunderstorms and Rain
9:55 PM 55.4 °F 55.4 °F 100% 30.06 in 10.0 mi NW 8.1 mph - N/A Rain Light Rain
9:58 PM 55.6 °F 55.0 °F 98% 30.06 in 10.0 mi NNW 8.1 mph - 0.21 in Rain Light Rain
10:18 PM 55.4 °F 55.4 °F 100% 30.08 in 10.0 mi NW 5.8 mph - N/A   Overcast
10:46 PM 55.4 °F 55.4 °F 100% 30.08 in 10.0 mi WNW 5.8 mph - N/A Rain Light Rain
10:55 PM 55.4 °F 53.6 °F 94% 30.09 in 10.0 mi WNW 5.8 mph - N/A   Light Drizzle
10:58 PM 55.0 °F 54.5 °F 98% 30.08 in 10.0 mi WNW 5.8 mph - 0.00 in   Light Drizzle
11:06 PM 55.4 °F 53.6 °F 94% 30.09 in 10.0 mi WNW 9.2 mph - N/A   Overcast
11:37 PM 53.6 °F 53.6 °F 100% 30.09 in 10.0 mi West 9.2 mph - N/A Rain Light Rain
11:42 PM 53.6 °F 53.6 °F 100% 30.08 in 10.0 mi WNW 6.9 mph - N/A Rain Light Rain
11:58 PM 53.2 °F 52.7 °F 98% 30.08 in 10.0 mi West 9.2 mph - 0.01 in Rain Light Rain